1KUNS-PF
1 43466U 98067NP 20100.68851496 .00113636 00000-0 39965-3 0 9998
2 43466 51.6291 254.7939 0004197 285.4012 74.6529 15.88314747109530
UBAKUSAT
1 43467U 98067NQ 20100.77580688 .00029456 00000-0 22377-3 0 9996
2 43467 51.6333 274.3496 0001097 157.0738 203.0309 15.72056282109296
EnduroSat One
1 43551U 98067NZ 20100.74357343 .00045450 00000-0 29341-3 0 9997
2 43551 51.6342 274.1057 0004533 208.1189 151.9566 15.75629643 99527
EQUISat
1 43552U 98067PA 20100.79466024 .00028808 00000-0 22932-3 0 9997
2 43552 51.6357 280.5690 0005007 195.2401 164.8446 15.70941914 99408
UiTMSat 1
1 43589U 98067PD 20100.79235091 .00036452 00000-0 26757-3 0 9998
2 43589 51.6325 279.6456 0004612 207.4225 152.6531 15.72746327 95154
Maya 1
1 43590U 98067PE 20100.78532660 .00034143 00000-0 25101-3 0 9998
2 43590 51.6316 279.6072 0004707 209.6311 150.4421 15.72742435 95087
Bhutan 1
1 43591U 98067PF 20100.50905164 .00034803 00000-0 25490-3 0 9996
2 43591 051.6334 280.8185 0004813 206.9628 153.1121 15.72821071095043
SiriusSat 1
1 43595U 98067PG 20100.52819011 .00029146 00000-0 23222-3 0 9992
2 43595 051.6324 284.6606 0002749 176.9220 183.1795 15.70922239094175
SiriusSat 2
1 43596U 98067PH 20100.58528848 .00030207 00000-0 24153-3 0 9998
2 43596 51.6333 285.1101 0003137 172.0303 188.0745 15.70816335 94171
Tanusha-3
1 43597U 98067PJ 20100.55265577 .00051863 00000-0 30787-3 0 9994
2 43597 51.6308 276.4598 0002818 216.1451 143.9360 15.77485877 94281
SurfSat
1 43614U 18070B 20100.54787106 .00002588 00000-0 67443-4 0 9996
2 43614 93.0224 126.1151 0012835 237.6862 122.3150 15.38858323 87881
CP-7 DAVE
1 43615U 18070C 20100.50814599 .00002485 00000-0 65033-4 0 9999
2 43615 093.0225 126.0929 0012985 237.4312 122.5689 15.38730551087879
ELFIN-B
1 43616U 18070D 20100.54068224 .00003821 00000-0 96039-4 0 9995
2 43616 093.0186 126.0295 0013405 239.6977 120.2952 15.39929928087913
ELFIN-A
1 43617U 18070E 20100.51661360 .00003992 00000-0 99850-4 0 9996
2 43617 093.0240 126.4740 0012814 235.5637 124.4407 15.40081994087910
STARS-Me Mother
1 43640U 98067PQ 20100.27008157 .00014821 00000-0 15871-3 0 9991
2 43640 051.6349 298.7962 0004767 134.0975 226.0412 15.64086671085894
CubeBel 1
1 43666U 18083E 20100.89472314 .00000824 00000-0 43671-4 0 9995
2 43666 97.4957 128.0187 0013431 235.4870 246.6655 15.18125868 80216
Changshagaoxin
1 43669U 18083H 20100.75782051 .00000716 00000-0 39385-4 0 9992
2 43669 97.4835 126.2851 0009621 226.3279 133.7158 15.17192151 80111
Ten-Koh
1 43677U 18084G 20100.39948933 .00000198 00000-0 26230-4 0 9994
2 43677 097.8730 217.6672 0016679 031.0583 329.1617 14.90266024078652
PO-101
1 43678U 18084H 20100.84916245 .00000187 00000-0 24305-4 0 9995
2 43678 97.8729 219.2965 0011211 48.4496 311.7629 14.91620189 78798
IRVINE 01
1 43693U 18088D 20100.55627349 .00002255 00000-0 95040-4 0 9990
2 43693 85.0320 122.6168 0017946 176.6683 183.4682 15.22569235 78361
QO-100
1 43700U 18090A 20100.50449003 .00000128 00000-0 00000-0 0 9991
2 43700 000.0165 217.4438 0002745 194.0373 354.1640 01.00274289005014
Reaktor Hello World
1 43743U 18096AA 20100.85843292 .00001165 00000-0 46247-4 0 9999
2 43743 97.4247 175.0690 0018347 16.0013 119.9106 15.27251215 75929
MinXSS-2
1 43758U 18099A 20100.15466380 .00000729 00000-0 70653-4 0 9993
2 43758 097.7111 173.2118 0017023 064.4719 295.8260 14.95617352073591
AO-95
1 43770U 18099N 20100.76888751 .00000109 00000-0 15156-4 0 9993
2 43770 97.7106 173.3315 0016043 69.0812 291.2124 14.94946550 73655
RANGE-B
1 43772U 18099Q 20100.46290030 .00000350 00000-0 37044-4 0 9997
2 43772 097.7167 173.4627 0015325 058.7813 301.4907 14.95118734073603
RANGE-A
1 43773U 18099R 20100.15639358 .00000413 00000-0 42996-4 0 9996
2 43773 097.7050 172.4225 0014894 059.7133 300.5559 14.94936048073556
MOVE-II
1 43780U 18099Y 20100.46856590 .00000593 00000-0 58881-4 0 9996
2 43780 097.7103 173.2027 0014875 068.8491 291.4318 14.95329628073607
SNUSat 2
1 43782U 18099AA 20100.47483998 .00000586 00000-0 58434-4 0 9993
2 43782 97.7100 173.2294 0013966 58.7849 301.4739 14.95216001 73617
SnugLite
1 43784U 18099AC 20100.44763018 -.00000119 00000-0 -55429-5 0 9992
2 43784 097.7067 173.0486 0016428 064.9908 295.3016 14.95309784073624
ITASat 1
1 43786U 18099AE 20100.51383944 -.00000150 00000-0 -83997-5 0 9994
2 43786 97.7120 173.4509 0016530 63.8629 296.4290 14.95290690 73630
EAGLET 1
1 43790U 18099AJ 20100.45647953 -.00000024 00000-0 30141-5 0 9997
2 43790 097.7107 173.6185 0014824 068.6391 291.6411 14.95670339073336
ESEO
1 43792U 18099AL 20100.46223633 -.00000004 00000-0 47887-5 0 9998
2 43792 97.7081 173.4814 0014576 65.8295 294.4448 14.95580324 73393
CSIM
1 43793U 18099AM 20100.45952222 .00000315 00000-0 33184-4 0 9999
2 43793 097.7070 173.4221 0014166 064.4234 295.8449 14.95975325073370
Astrocast 0.1
1 43798U 18099AS 20100.78815700 -.00000133 00000-0 -67335-5 0 9995
2 43798 97.7100 174.0305 0013444 49.3674 310.8714 14.95842421 73684
JO-97
1 43803U 18099AX 20100.73705293 .00000539 00000-0 53789-4 0 9997
2 43803 97.7077 173.5061 0016442 64.1698 296.1217 14.95456688 73667
Suomi 100
1 43804U 18099AY 20100.46976552 .00000478 00000-0 48301-4 0 9992
2 43804 097.7075 173.2343 0016527 065.0765 295.2171 14.95447187073635
Al Farabi 2
1 43805U 18099AZ 20100.71691059 .00000021 00000-0 70555-5 0 9998
2 43805 97.7084 173.5432 0016526 63.8664 296.4255 14.95558105 73674
PWSat 2
1 43814U 18099BJ 20100.46037131 .00024329 00000-0 15287-2 0 9990
2 43814 097.7821 179.9630 0008970 102.0507 258.1649 15.09213907073305
CHOMPTT
1 43855U 18104G 20100.77220049 .00001168 00000-0 48013-4 0 9999
2 43855 85.0368 220.6176 0016110 311.6872 48.2989 15.22857918 73073
ISAT
1 43879U 18111D 20100.74894726 .00000624 00000-0 60412-4 0 9992
2 43879 97.7059 9.2714 0014569 111.7839 248.4934 14.96191688 68212
UWE-4
1 43880U 18111E 20100.53962632 .00000217 00000-0 24192-4 0 9996
2 43880 97.7068 9.2993 0013581 113.1237 247.1417 14.96423133 68196
Sparrow
1 43881U 18111F 20100.52448191 -.00000139 00000-0 -71290-5 0 9992
2 43881 97.7079 9.3460 0013709 110.8226 249.4465 14.96485043 68188
Lume 1
1 43908U 18111AJ 20100.47870779 .00001186 00000-0 50189-4 0 9991
2 43908 097.2715 002.4253 0022295 031.1421 329.1133 15.24902179071511
FO-98
1 43933U 19003B 20100.91847815 .00000664 00000-0 31867-4 0 9996
2 43933 97.2395 153.2512 0019526 120.4071 54.2194 15.22014429 68106
FO-99
1 43937U 19003F 20100.84296345 .00001245 00000-0 53462-4 0 9999
2 43937 97.2348 154.2281 0025811 105.7620 342.6052 15.24221687 68185
Delphini 1
1 44030U 98067PW 20100.56425455 .00019742 00000-0 21144-3 0 9998
2 44030 051.6346 303.7717 0004510 179.6225 180.4774 15.63839610067723
MYSat 1
1 44045U 18092F 20100.18409678 .00002217 00000-0 72386-4 0 9995
2 44045 51.6462 18.5399 0012320 75.8557 284.3793 15.36324435 64645
